Wind_Speed
23 21 21 19 18 16 14 13 13 12 12 12 13 13 13 14 14 14 14 16 16 14 14 13 12 15 15 16 19 20 22 25 26 32 27 24 26 25 32 31 31 25 20
29 27 25 24 24 21 19 17 16 15 13 13 14 14 14 14 14 14 14 14 15 17 15 15 14 13 16 16 18 20 22 24 27 32 32 28 25 25 25 26 28 28 29
34 34 33 31 29 26 23 22 20 18 16 15 14 14 14 14 14 14 14 15 16 16 17 17 15 15 14 17 19 20 21 24 25 28 33 34 31 29 31 29 30 29 27
40 39 38 36 32 30 27 26 24 21 20 18 17 16 15 15 15 15 15 15 15 17 17 18 18 17 17 17 18 19 20 22 23 25 31 36 36 33 32 32 28 29 30
44 44 41 38 36 35 33 31 28 26 24 22 20 18 16 15 16 17 18 18 19 18 19 19 20 18 16 16 19 21 22 23 25 25 26 27 32 32 30 27 27 27 29
42 46 43 41 41 39 37 35 32 30 27 24 23 20 18 16 16 17 19 21 21 22 22 21 21 20 18 16 16 19 20 22 24 25 26 27 29 33 32 31 32 31 32
41 45 47 44 44 43 40 39 36 34 29 27 27 25 21 18 18 19 19 21 22 23 23 24 23 23 22 20 18 17 19 19 19 22 27 26 29 26 30 35 33 29 30
42 43 43 44 44 45 43 41 38 35 32 31 30 27 24 21 20 21 22 22 22 22 23 23 24 25 24 24 22 22 23 23 22 23 24 26 27 29 27 30 36 43 39
39 41 43 43 44 44 44 42 40 36 35 33 31 29 27 23 22 22 22 24 24 24 24 25 26 26 24 23 23 27 27 27 24 25 23 29 32 35 31 29 28 33 43
35 35 37 39 42 42 42 41 38 37 36 35 33 31 28 25 22 23 22 24 26 25 26 26 26 27 23 22 24 25 29 30 30 31 32 34 35 34 34 31 31 33 38
33 32 32 34 37 38 37 38 37 35 36 35 32 30 29 27 24 24 23 24 26 26 27 29 29 29 28 28 23 23 28 31 32 33 35 33 32 29 28 29 26 29 34
29 31 32 31 31 33 34 36 35 35 34 32 31 30 29 27 26 26 24 24 24 27 29 30 31 31 27 24 26 26 27 28 30 33 34 34 34 33 31 29 27 26 32
24 25 26 26 27 30 31 33 31 31 30 29 29 30 29 27 27 25 26 25 26 28 30 30 27 26 26 29 28 24 24 31 33 37 37 38 36 33 32 33 29 28 32
17 18 19 20 22 24 26 27 27 28 27 26 26 28 29 29 29 28 28 28 28 30 29 29 31 29 26 28 32 35 36 33 28 29 33 36 36 34 32 31 30 26 27
11 12 15 17 19 20 21 22 24 25 26 27 28 29 31 33 31 29 28 28 29 26 28 34 34 33 37 37 36 32 29 30 32 32 32 36 31 29 30 29 28 26 30
11 13 15 16 18 20 22 23 26 27 27 27 26 25 29 31 29 26 25 26 28 29 32 38 41 38 34 33 35 39 33 28 31 36 30 28 29 32 30 28 29 31 28
13 13 13 15 16 18 20 23 27 25 27 28 29 28 26 29 30 30 30 31 33 31 36 40 41 40 36 36 40 41 43 38 33 33 37 36 32 34 29 29 32 33 32
10 11 12 15 17 19 22 24 27 29 30 31 28 30 32 33 30 31 31 31 36 35 38 40 41 40 38 41 44 45 43 41 39 32 34 37 36 30 34 36 37 35 35
12 14 15 17 19 22 23 25 27 29 30 32 33 32 30 31 31 29 28 32 35 36 35 37 40 45 47 47 47 45 42 35 31 36 38 37 32 31 32 33 33 31 30
15 15 16 18 20 20 21 23 24 26 27 29 31 32 29 28 31 33 32 33 36 40 42 44 46 45 45 43 43 42 37 37 41 41 40 39 35 34 32 31 32 29 34
13 13 13 16 19 19 21 23 24 27 30 32 34 32 28 28 33 35 35 35 35 36 37 37 39 41 43 43 43 43 43 44 43 42 40 39 37 37 34 31 31 32 33
13 15 16 18 20 22 25 27 29 30 31 34 36 36 34 31 35 39 42 44 46 48 50 51 52 52 51 49 46 45 45 46 45 42 40 40 38 37 35 32 31 29 32
16 18 20 22 22 23 24 26 29 33 37 38 40 41 41 44 47 48 49 48 47 46 44 45 47 48 46 46 45 45 46 47 45 41 41 40 39 37 35 32 33 33 34
17 17 17 20 23 27 30 33 36 38 38 41 44 47 49 51 53 54 52 50 49 49 49 48 48 48 46 45 45 44 45 45 42 41 39 39 38 36 34 36 35 33 34
18 22 25 27 30 34 38 40 42 45 48 50 51 50 50 50 52 52 53 52 51 51 50 50 50 50 49 48 47 46 45 43 41 39 38 38 37 36 36 36 35 36 35
24 29 33 35 36 40 44 48 49 48 47 47 49 51 52 54 55 55 55 55 55 55 55 54 53 52 50 48 46 45 43 42 41 39 38 39 39 38 38 37 36 36 34
Wind_Direction
236 240 244 250 255 260 270 280 282 289 300 314 323 327 331 333 335 336 332 328 330 334 328 325 318 313 308 300 291 281 271 270 280 278 289 291 277 266 280 292 282 276 277
241 245 250 252 254 257 262 269 276 279 285 296 308 318 325 328 329 329 329 329 325 326 330 329 325 313 305 304 298 295 289 281 279 278 278 295 284 266 268 276 289 276 268
241 242 243 247 251 256 258 263 269 274 277 284 294 305 314 318 319 319 321 324 325 326 325 328 331 323 313 304 303 301 299 295 288 285 275 276 295 280 266 276 278 281 285
241 243 245 248 252 254 255 257 261 268 272 276 282 291 300 307 310 312 314 315 318 321 322 323 327 328 322 311 304 302 301 296 294 288 278 270 273 288 282 280 283 280 284
244 243 246 248 249 250 250 253 254 259 264 266 270 279 288 296 302 306 310 313 315 317 320 321 321 323 324 315 309 305 302 300 299 299 294 286 274 273 286 292 299 300 283
251 246 246 248 248 247 247 250 251 254 257 261 263 267 273 283 293 301 306 308 312 314 315 316 316 317 316 312 303 299 303 303 301 305 301 291 287 275 273 285 311 310 302
255 250 246 247 247 245 245 246 247 249 252 255 256 260 265 274 285 293 298 301 306 310 313 313 311 311 313 312 309 296 299 302 296 297 298 297 295 296 282 279 280 308 304
256 252 249 247 246 244 244 244 245 246 250 253 254 257 261 267 275 283 290 294 298 302 305 307 308 309 309 311 307 301 297 290 290 289 282 292 290 282 282 277 275 273 285
256 253 251 248 245 242 241 242 243 245 248 252 253 256 262 264 270 276 281 288 293 298 301 302 304 306 308 305 302 302 299 295 290 292 283 270 274 274 274 282 280 281 272
260 260 254 248 245 241 240 239 241 243 246 248 250 253 258 265 268 274 279 282 286 291 295 297 299 300 303 299 301 301 299 299 301 295 287 283 281 282 279 275 276 269 263
256 256 255 251 247 242 238 235 236 239 245 247 249 252 256 260 267 271 274 277 282 287 291 294 296 297 300 301 299 297 296 303 300 299 298 295 297 293 289 282 281 257 264
248 251 251 249 244 235 229 232 234 237 241 247 251 255 259 264 268 272 277 276 278 281 283 287 288 294 299 296 292 289 290 292 292 293 294 294 296 301 299 294 282 269 256
248 246 244 239 231 227 228 233 237 242 245 248 254 258 263 267 269 271 274 276 278 277 281 284 285 287 288 293 293 298 294 283 290 296 293 293 296 300 298 294 288 278 262
246 240 236 232 229 228 232 236 240 245 249 254 261 268 272 273 275 278 280 279 277 280 284 284 286 288 284 283 286 291 295 296 296 292 292 293 297 299 297 294 292 285 284
239 234 227 224 228 231 235 241 246 249 252 257 261 266 271 273 278 280 280 284 290 295 299 298 295 285 287 292 295 296 296 294 290 293 295 297 298 299 299 301 294 282 280
234 238 243 246 249 253 255 256 256 258 258 261 266 272 278 281 284 283 282 278 278 279 278 276 277 281 283 287 290 293 296 288 282 293 292 286 283 287 287 288 290 281 282
241 242 246 250 253 255 258 262 264 259 266 267 269 271 271 274 274 274 273 272 273 273 270 271 272 276 279 279 280 284 286 290 290 286 286 287 288 291 294 295 289 281 277
247 249 251 257 261 263 265 269 272 276 277 273 270 273 272 272 276 276 276 277 272 267 264 265 267 269 274 277 279 282 283 287 290 283 279 283 290 283 280 279 279 280 277
259 262 266 267 270 272 273 274 276 278 281 283 283 278 276 278 278 275 273 266 267 265 262 262 265 269 272 275 278 280 282 283 274 277 281 284 284 278 278 280 282 280 281
268 270 272 273 270 272 277 281 282 285 287 288 288 290 295 290 282 281 279 275 269 265 266 268 270 272 273 275 276 277 277 270 275 279 280 281 278 278 278 279 279 281 277
275 279 279 279 288 291 287 286 289 289 289 289 289 292 293 286 289 288 286 282 280 278 278 277 278 277 279 279 279 277 274 275 276 278 278 277 276 277 278 277 275 272 272
283 283 282 285 286 284 284 283 283 285 288 288 287 288 285 277 276 275 274 274 274 275 276 277 277 276 276 276 275 274 273 272 273 274 274 274 274 274 275 274 275 274 273
284 289 292 293 291 290 288 286 285 288 291 290 290 287 284 284 286 286 286 286 285 282 279 277 275 275 274 272 271 270 269 268 270 271 271 270 270 270 271 268 266 269 269
295 298 299 297 294 293 291 291 290 289 285 285 286 287 284 284 284 285 286 286 286 284 283 280 278 277 275 272 271 268 267 266 266 266 265 264 265 265 260 263 268 264 266
304 297 293 290 291 291 291 290 289 289 290 290 289 288 288 287 286 286 286 286 285 283 281 280 279 277 275 272 270 267 266 265 262 262 261 259 259 259 260 261 261 263 264
291 293 292 293 291 290 290 291 291 291 290 290 290 289 289 289 288 287 287 286 284 283 283 281 279 276 274 270 266 263 261 258 255 251 249 252 255 255 257 259 259 262 264
Height
1537 1540 1542 1544 1545 1546 1546 1546 1547 1547 1547 1547 1547 1547 1546 1545 1543 1542 1541 1539 1537 1536 1534 1534 1534 1534 1534 1535 1536 1536 1536 1536 1527 1527 1531 1529 1526 1526 1529 1532 1532 1531 1531
1531 1533 1536 1538 1539 1540 1542 1542 1543 1543 1543 1544 1544 1543 1543 1542 1540 1539 1538 1537 1536 1533 1532 1531 1531 1531 1531 1531 1531 1530 1526 1525 1524 1520 1523 1526 1525 1520 1521 1523 1525 1525 1525
1525 1527 1529 1531 1532 1534 1536 1537 1538 1538 1538 1539 1539 1539 1539 1538 1537 1537 1535 1534 1532 1531 1530 1528 1528 1527 1527 1526 1525 1523 1521 1518 1516 1515 1515 1521 1518 1516 1515 1513 1517 1518 1517
1516 1518 1520 1522 1524 1527 1529 1530 1531 1532 1532 1533 1534 1534 1534 1534 1534 1532 1531 1530 1529 1527 1526 1525 1524 1523 1521 1521 1520 1518 1515 1513 1513 1513 1514 1515 1512 1511 1510 1509 1506 1509 1510
1506 1508 1510 1514 1517 1519 1522 1524 1526 1526 1527 1529 1529 1530 1530 1530 1529 1528 1526 1525 1523 1523 1522 1520 1518 1517 1517 1515 1513 1512 1511 1509 1510 1509 1507 1505 1504 1506 1504 1504 1501 1500 1500
1496 1497 1502 1504 1507 1510 1513 1515 1518 1520 1522 1524 1524 1524 1524 1523 1522 1521 1520 1519 1518 1517 1517 1516 1514 1513 1512 1511 1510 1509 1509 1506 1503 1501 1499 1501 1502 1502 1499 1501 1497 1493 1492
1486 1488 1491 1495 1497 1499 1503 1505 1508 1511 1513 1515 1517 1518 1517 1516 1515 1515 1514 1512 1512 1512 1511 1511 1509 1508 1507 1506 1504 1504 1504 1504 1503 1502 1499 1498 1495 1493 1494 1493 1492 1493 1490
1474 1477 1481 1484 1487 1490 1494 1497 1500 1502 1505 1507 1509 1510 1511 1512 1509 1509 1508 1507 1506 1506 1506 1505 1504 1502 1501 1500 1499 1498 1497 1497 1496 1495 1494 1492 1491 1487 1490 1486 1484 1485 1483
1463 1467 1471 1475 1477 1480 1483 1487 1491 1495 1497 1499 1501 1504 1504 1506 1505 1503 1502 1501 1500 1500 1499 1499 1497 1496 1496 1495 1493 1490 1490 1489 1489 1488 1486 1485 1484 1481 1484 1479 1479 1479 1475
1456 1459 1463 1466 1468 1469 1473 1477 1481 1485 1488 1489 1492 1494 1496 1498 1500 1499 1497 1494 1493 1493 1493 1491 1491 1491 1490 1489 1488 1485 1482 1481 1480 1479 1477 1475 1474 1472 1472 1472 1472 1473 1473
1448 1450 1453 1457 1461 1465 1467 1469 1472 1475 1479 1483 1483 1486 1487 1489 1491 1493 1492 1490 1489 1486 1484 1484 1484 1483 1483 1483 1481 1480 1479 1477 1473 1472 1468 1464 1463 1462 1463 1463 1465 1466 1460
1441 1442 1444 1446 1452 1458 1458 1464 1465 1465 1468 1474 1476 1477 1480 1482 1483 1484 1484 1486 1484 1481 1478 1478 1475 1476 1474 1474 1475 1473 1473 1471 1466 1463 1460 1456 1455 1453 1454 1453 1452 1451 1452
1433 1436 1439 1440 1443 1448 1450 1456 1459 1463 1462 1465 1468 1468 1470 1473 1474 1473 1476 1475 1476 1477 1474 1471 1469 1467 1466 1464 1465 1464 1465 1463 1459 1456 1451 1448 1448 1445 1444 1443 1443 1442 1441
1428 1429 1433 1440 1442 1443 1447 1451 1452 1456 1458 1459 1460 1462 1464 1464 1465 1466 1466 1466 1466 1468 1467 1464 1461 1458 1459 1457 1456 1454 1453 1453 1451 1448 1444 1442 1440 1437 1436 1436 1433 1432 1431
1428 1432 1434 1436 1437 1440 1443 1446 1448 1452 1452 1450 1452 1455 1456 1455 1457 1456 1456 1457 1457 1457 1457 1456 1451 1449 1446 1446 1445 1445 1444 1445 1443 1441 1438 1435 1433 1430 1428 1427 1426 1425 1424
1423 1427 1431 1433 1435 1439 1440 1442 1444 1446 1445 1444 1446 1447 1447 1447 1448 1449 1448 1450 1451 1451 1450 1447 1442 1440 1436 1435 1434 1434 1436 1437 1436 1434 1431 1430 1427 1424 1422 1422 1421 1418 1415
1422 1423 1424 1427 1430 1432 1433 1436 1438 1439 1437 1436 1437 1438 1439 1440 1441 1440 1440 1440 1439 1440 1437 1434 1431 1429 1428 1426 1427 1427 1427 1426 1427 1424 1422 1421 1419 1416 1414 1414 1412 1410 1407
1421 1422 1420 1423 1425 1427 1428 1429 1430 1428 1425 1425 1429 1430 1428 1428 1428 1429 1430 1429 1426 1425 1424 1422 1420 1418 1418 1418 1419 1418 1416 1415 1416 1414 1411 1411 1410 1409 1406 1405 1404 1402 1399
1418 1419 1416 1417 1419 1422 1421 1420 1422 1420 1417 1414 1416 1419 1421 1418 1416 1418 1419 1416 1414 1412 1411 1409 1409 1408 1407 1408 1408 1407 1405 1404 1405 1403 1401 1400 1400 1400 1398 1397 1395 1393 1393
1413 1414 1412 1411 1415 1414 1413 1413 1413 1411 1408 1407 1407 1407 1406 1407 1405 1404 1403 1402 1401 1400 1399 1397 1397 1396 1396 1396 1395 1394 1393 1392 1392 1391 1390 1390 1389 1389 1387 1388 1387 1385 1383
1407 1406 1406 1407 1407 1406 1406 1406 1405 1403 1401 1399 1399 1399 1399 1397 1394 1392 1391 1390 1389 1387 1386 1385 1384 1383 1382 1382 1381 1380 1379 1378 1378 1379 1379 1378 1378 1376 1376 1378 1377 1375 1375
1401 1402 1401 1401 1401 1401 1401 1399 1397 1396 1394 1391 1389 1387 1388 1387 1384 1382 1380 1378 1377 1375 1373 1371 1369 1367 1367 1366 1366 1365 1365 1364 1365 1367 1367 1367 1367 1366 1366 1366 1366 1365 1366
1397 1396 1395 1395 1395 1394 1392 1391 1389 1387 1384 1381 1378 1375 1374 1372 1369 1366 1363 1361 1359 1357 1355 1354 1351 1349 1350 1350 1350 1350 1349 1349 1351 1354 1354 1355 1355 1356 1356 1356 1356 1355 1355
1392 1390 1389 1389 1388 1386 1384 1381 1379 1377 1375 1370 1367 1363 1360 1357 1353 1350 1347 1344 1342 1339 1337 1336 1334 1332 1333 1333 1333 1333 1333 1335 1337 1339 1341 1342 1343 1344 1345 1345 1345 1346 1345
1387 1386 1384 1382 1380 1377 1374 1371 1368 1364 1361 1356 1352 1348 1344 1341 1337 1333 1330 1327 1324 1322 1319 1318 1317 1315 1315 1315 1316 1317 1318 1320 1323 1325 1327 1328 1329 1331 1333 1333 1334 1335 1334
1381 1378 1376 1373 1369 1367 1363 1359 1354 1350 1346 1342 1338 1333 1329 1324 1319 1315 1311 1308 1305 1302 1300 1298 1296 1296 1296 1296 1297 1299 1302 1304 1307 1311 1315 1317 1318 1319 1321 1322 1323 1324 1324